ASTRA 2A

Last updated on Jan. 17, 2021, 6:29 a.m. UTC

1 25462U 98050A   21016.83035694  .00000144  00000-0  00000-0 0  9998
2 25462   2.1365  90.9896 0002074 203.3218 149.0509  1.00275289 26506
UTC
Height (km)
Latitude
Longitude
Inclination
Orbital Period
UTC large
Height (km)
Speed (km/s)
/
Latitude / Longitude
Inclination (degrees)
Orbital Period (minutes)
Azimuth
Elevation
Range (km)
Doppler Factor
iOS Compass Heading
iOS Angle

Next 30 passes for location: Hong Kong

Rise time Rise Azimuth (degrees) Set time Set Azimuth (degrees) Duration Max altitude (degrees)

No matching passes for this satellites